Hourly Data Report for May 01, 2021

VINELAND STATION RCS
ONTARIO
Current Station Operator: ECCC - MSC

43°11'00.000" N
79°24'00.000" W
79.20 m
6139148
71171
XVN

Download Data

Hourly Data (May 2021)
Hourly Data Report for May 1, 2021
TIME
LST
Temp Definition
°C
Dew Point Definition
°C
Rel Hum Definition
%
Precip. Amount Definition
mm

Wind Dir Definition
10's deg

Wind Spd Definition
km/h
Visibility Definition
km
Stn Press Definition
kPa
Hmdx Definition


Wind Chill Definition


Weather Definition


00:00 5.6 -0.6 64 0.0 29 25   100.56     LegendNANA
01:00 5.2 -0.7 66 0.0 29 22   100.63     LegendNANA
02:00 4.9 -0.4 68 0.0 30 17   100.71     LegendNANA
03:00 4.6 -1.0 67 0.0 30 17   100.78     LegendNANA
04:00 4.0 -1.2 69 0.0 32 16   100.83     LegendNANA
05:00 3.6 -1.2 71 0.0 31 14   100.89     LegendNANA
06:00 3.8 -2.1 66 0.0 33 12   100.92     LegendNANA
07:00 4.5 -2.4 61 0.0 34 9   100.94     LegendNANA
08:00 5.1 -2.6 58 0.0 29 6   100.92     LegendNANA
09:00 6.7 -3.2 49 0.0 26 7   100.87     LegendNANA
10:00 7.3 -5.5 40 0.0 33 14   100.85     LegendNANA
11:00 7.9 -3.9 43 0.0 36 10   100.74     LegendNANA
12:00 9.1 -1.4 48 0.0 5 11   100.61     LegendNANA
13:00 11.4 0.1 46 0.0 20 19   100.42     LegendNANA
14:00 12.0 -2.2 37 0.0 22 25   100.34     LegendNANA
15:00 12.1 -4.5 31 0.0 20 30   100.13     LegendNANA
16:00 13.4 -3.6 30 0.0 22 30   100.01     LegendNANA
17:00 12.5 -3.7 32 0.0 23 23   99.87     LegendNANA
18:00 11.6 -0.6 43 0.0 20 18   99.66     LegendNANA
19:00 11.3 0.1 46 0.0 22 17   99.59     LegendNANA
20:00 10.9 0.4 48 0.0 21 9   99.63     LegendNANA
21:00 10.3 1.6 55 0.0 18 7   99.59     LegendNANA
22:00 11.1 2.2 54 0.0 22 13   99.51     LegendNANA
23:00 13.0 2.0 47 0.0 22 24   99.43     LegendNANA

Notes on Data Quality.

Legend

  • E = Estimated
  • M = Missing
  • NA = Not Available*
  • [empty] = Indicates an unobserved value
Date modified: